This is the latest recevied weather packets stored in our database for station/object KC1BRV. If no packets are shown the sender has not sent any weather packets the latest 10 day(s).
| Time | Temp. | Humidity | Pressure | Rain* | Wind** | Luminosity | Snow |
|---|---|---|---|---|---|---|---|
| 1788624988 | 23.33° C | 68% | 1010.8 hPa | 0 mm | - | 172 W/m² | - |
| 1788624686 | 23.33° C | 68% | 1010.6 hPa | 0 mm | - | 214 W/m² | - |
| 1788624381 | 23.89° C | 66% | 1010.7 hPa | 0 mm | - | 265 W/m² | - |
| 1788624081 | 23.33° C | 68% | 1010.8 hPa | 0 mm | - | 759 W/m² | - |
| 1788623781 | 22.78° C | 68% | 1010.7 hPa | 0 mm | - | 677 W/m² | - |
| 1788623479 | 23.33° C | 68% | 1010.5 hPa | 0 mm | - | 189 W/m² | - |
| 1788623174 | 23.89° C | 67% | 1010.5 hPa | 0 mm | - | 209 W/m² | - |
| 1788622870 | 24.44° C | 64% | 1010.4 hPa | 0 mm | - | 160 W/m² | - |
| 1788622566 | 24.44° C | 63% | 1010.7 hPa | 0 mm | - | 213 W/m² | - |
| 1788622260 | 23.89° C | 64% | 1010.7 hPa | 0 mm | - | 732 W/m² | - |
| 1788621955 | 23.33° C | 65% | 1010.6 hPa | 0 mm | - | 679 W/m² | - |
| 1788621650 | 22.78° C | 67% | 1010.6 hPa | 0 mm | - | 666 W/m² | - |
| 1788621345 | 23.33° C | 66% | 1010.5 hPa | 0 mm | - | 294 W/m² | - |
| 1788621040 | 23.89° C | 66% | 1010.5 hPa | 0 mm | - | 645 W/m² | - |
| 1788620735 | 23.33° C | 69% | 1010.5 hPa | 0 mm | - | 618 W/m² | - |
| 1788612115 | 19.44° C | 83% | 1010.7 hPa | 0 mm | - | 33 W/m² | - |
| 1788611810 | 19.44° C | 83% | 1010.7 hPa | 0 mm | - | 33 W/m² | - |
| 1788611508 | 18.89° C | 83% | 1010.9 hPa | 0 mm | - | 32 W/m² | - |
| 1788611207 | 18.89° C | 84% | 1010.8 hPa | 0 mm | - | 31 W/m² | - |
| 1788610902 | 18.33° C | 86% | 1010.7 hPa | 0 mm | - | 31 W/m² | - |
| 1788610596 | 18.33° C | 86% | 1010.6 hPa | 0 mm | - | 31 W/m² | - |
| 1788610292 | 17.78° C | 87% | 1010.6 hPa | 0 mm | - | 30 W/m² | - |
| 1788609991 | 17.78° C | 88% | 1010.5 hPa | 0 mm | - | 34 W/m² | - |
| 1788609687 | 17.78° C | 89% | 1010.6 hPa | 0 mm | - | 29 W/m² | - |
| 1788609385 | 17.22° C | 90% | 1010.4 hPa | 0 mm | - | 27 W/m² | - |
* Rain latest hour (hover to see other rain measurements)
** Current wind speed in m/s (hover to see current wind gust speed)